Location: Sternwarte_Laufen
(47.9344°N, 12.9346°E)
Time: 15:15:50
(UTC+02:00)

ISS - Pass Details

Date: 22 March 2017
Orbit: 399 x 409 km, 51.6° (Epoch: 29 March)

Event Time Altitude Azimuth Distance (km) Brightness Sun altitude
Exits shadow 05:19:28 12° 254° (WSW) 1,338 -1.9 -8.8°
Maximum altitude 05:21:00 16° 223° (SW) 1,166 -2.0 -8.5°
Drops below altitude 10° 05:23:06 10° 183° (S) 1,469 -1.1 -8.2°
Sets 05:25:44 0° 161° (SSE) 2,325 0.1 -7.7°
